AO-07 1 07530U 74089B 21112.56168134 -.00000030 00000-0 98909-4 0 9997 2 07530 101.8498 87.1338 0012473 128.2418 347.3533 12.53648418124727 UO-11 1 14781U 84021B 21112.53770939 .00000171 00000-0 27002-4 0 9990 2 14781 97.5933 115.1330 0006891 264.6431 95.3998 14.83273906977642 LO-19 1 20442U 90005G 21112.76749051 .00000023 00000-0 25018-4 0 9997 2 20442 98.7361 67.7430 0011199 330.0792 29.9750 14.32983404632911 HUBBLE 1 20580U 90037B 21112.33462672 .00000654 00000-0 28638-4 0 9990 2 20580 28.4699 76.3926 0002742 173.6675 341.2148 15.09618255502572 MET-2/21 1 22782U 93055A 21112.76812976 -.00000004 00000-0 -17196-4 0 9990 2 22782 82.5500 348.1144 0023647 87.7536 341.1262 13.83835345396095 AO-27 1 22825U 93061C 21112.54717898 .00000005 00000-0 19891-4 0 9991 2 22825 98.9214 128.7810 0008214 190.2795 169.8219 14.30112084438262 IO-26 1 22826U 93061D 21112.88055716 .00000017 00000-0 24466-4 0 9990 2 22826 98.9156 129.0367 0008996 177.1105 183.0130 14.30450521438536 FO-29 1 24278U 96046B 21112.47350104 -.00000049 00000-0 -10951-4 0 9994 2 24278 98.5702 187.8556 0349327 294.7644 61.7526 13.53102901218676 NOAA-15 1 25338U 98030A 21112.86637393 .00000073 00000-0 48920-4 0 9990 2 25338 98.6876 141.8741 0011558 84.2868 275.9630 14.26023715193320 GO-32 1 25397U 98043D 21112.46397770 -.00000008 00000-0 16006-4 0 9996 2 25397 98.7665 58.1838 0000478 186.6585 173.4587 14.23706176183521 ISS 1 25544U 98067A 21112.88366650 .00002676 00000-0 56849-4 0 9996 2 25544 51.6436 256.2678 0002620 265.2411 230.9686 15.48923085280025 NO-44 1 26931U 01043C 21112.31917324 -.00000023 00000-0 23037-4 0 9991 2 26931 67.0517 65.3061 0007173 264.2866 95.7417 14.30614821 21200 SO-50 1 27607U 02058C 21112.52929283 .00000050 00000-0 27572-4 0 9996 2 27607 64.5540 149.3557 0034483 42.0271 318.3467 14.75736719986308 CO-55 1 27844U 03031E 21112.47929300 .00000080 00000-0 55791-4 0 9992 2 27844 98.6821 121.5376 0008834 237.0943 122.9385 14.22302607924021 CO-57 1 27848U 03031J 21112.80768798 .00000067 00000-0 50092-4 0 9999 2 27848 98.6878 122.4279 0008605 250.7507 109.2740 14.21880379923931 RS-22 1 27939U 03042A 21112.72427258 .00000260 00000-0 55106-4 0 9992 2 27939 98.1306 250.2369 0014321 96.5239 263.7599 14.66972021939359 NOAA-18 1 28654U 05018A 21112.49007247 .00000078 00000-0 66279-4 0 9998 2 28654 98.9984 177.1206 0015282 81.7786 278.5118 14.12599641820546 CO-58 1 28895U 05043F 21112.30968747 .00000217 00000-0 50502-4 0 9991 2 28895 98.0493 246.8026 0017319 31.7852 328.4392 14.63896435825793 Falconsat-3 1 30776U 07006E 21112.37197125 .00005657 00000-0 13808-3 0 9994 2 30776 35.4335 100.5229 0001555 141.9887 218.0951 15.40265791784455 CO-65 1 32785U 08021C 21112.41042523 .00000407 00000-0 49183-4 0 9994 2 32785 97.6075 93.4430 0012758 182.0877 178.0289 14.88688410703834 AAUSAT2 1 32788U 08021F 21112.55545498 .00000830 00000-0 79786-4 0 9993 2 32788 97.5045 109.5632 0013421 96.3000 263.9751 14.95508582705603 DO-64 1 32789U 08021G 21112.77633633 .00002564 00000-0 16682-3 0 9998 2 32789 97.3819 150.2795 0010928 342.2771 17.8075 15.08783778708538 CO-66 1 32791U 08021J 21112.40646901 .00000466 00000-0 52049-4 0 9990 2 32791 97.5685 99.4050 0013988 147.0776 213.1317 14.91356082704426 RS-30 1 32953U 08025A 21112.77501949 .00000028 00000-0 12906-3 0 9997 2 32953 82.5004 85.5551 0020714 97.1631 263.1804 12.43101337586067 PRISM 1 33493U 09002B 21112.47264430 .00000789 00000-0 72990-4 0 9995 2 33493 98.1832 72.3384 0015762 110.1646 250.1271 14.97570114665949 NOAA-19 1 33591U 09005A 21112.87290558 .00000048 00000-0 51311-4 0 9993 2 33591 99.1880 132.1901 0012955 289.6043 70.3729 14.12461936629078 SRMSAT 1 37841U 11058D 21112.53987365 .00000341 00000-0 42268-4 0 9995 2 37841 19.9723 279.0233 0011945 39.5768 6.3888 14.10691889491790 HRBE 1 37855U 11061F 21112.40798238 .00001364 00000-0 73248-4 0 9997 2 37855 101.7160 6.7599 0167205 237.3672 121.1311 15.07481028517732 RS-40 1 38735U 12041C 21112.79591279 .00000020 00000-0 71019-4 0 9994 2 38735 82.4790 167.7987 0016762 202.6355 157.3988 12.42582649396279 ZACUBE-1 1 39417U 13066B 21112.52650619 .00000467 00000-0 64419-4 0 9996 2 39417 97.5904 99.7609 0058294 346.0713 13.8889 14.81482756400795 GOMX-1 1 39430U 13066Q 21112.79846520 .00000449 00000-0 90368-4 0 9990 2 39430 97.8125 39.0661 0149303 290.5312 67.9925 14.59587109394924 LO-74 1 39440U 13066AA 21112.46494712 .00000465 00000-0 70717-4 0 9991 2 39440 97.6715 84.5891 0081248 57.7464 303.1587 14.76210486398161 AO-73 1 39444U 13066AE 21112.47724627 .00000576 00000-0 76369-4 0 9999 2 39444 97.5814 102.0672 0057090 336.8570 23.0074 14.82382988399146 SPROUT 1 39770U 14029E 21112.81178328 .00001606 00000-0 17950-3 0 9995 2 39770 97.9085 224.1564 0009680 39.6665 320.5295 14.88333580375068 DTUSAT-2 1 40030U 14033W 21112.77906738 .00000434 00000-0 52174-4 0 9996 2 40030 97.9148 40.0436 0012029 5.5639 354.5710 14.88953519371544 EO-80 1 40032U 14033Y 21112.47183839 .00000519 00000-0 61312-4 0 9992 2 40032 97.9154 39.7424 0012025 7.3774 352.7618 14.88909193370962 HODOYOSHI-1 1 40299U 14070B 21112.78524501 .00001645 00000-0 69373-4 0 9993 2 40299 97.2880 187.8661 0012755 176.5192 302.5927 15.24623596358937 FIREBIRD FU3 1 40377U 15003B 21112.48200436 .00002868 00000-0 10764-3 0 9999 2 40377 99.0895 242.0387 0118328 0.9733 359.1706 15.22074477344274 FIREBIRD FU4 1 40378U 15003C 21112.78892015 .00002636 00000-0 99118-4 0 9997 2 40378 99.0902 242.5410 0118399 359.7766 0.3393 15.22126217344339 GRIFEX 1 40379U 15003D 21112.76754946 .00002229 00000-0 93038-4 0 9999 2 40379 99.0862 232.3116 0129388 31.1017 329.7789 15.17839746343748 NO-84 1 40654U 15025D 21111.15859084 .00031671 00000-0 25312-3 0 2681 2 40654 54.9828 311.4499 0081198 273.2208 85.9544 15.66508047217028 XW-2A 1 40903U 15049E 21112.87249947 .00005143 00000-0 11108-3 0 9999 2 40903 97.2421 167.5192 0011397 209.8844 265.1858 15.44915086314219 XW-2C 1 40906U 15049H 21112.81793089 .00001703 00000-0 90305-4 0 9992 2 40906 97.4872 115.8710 0015416 26.9852 95.8051 15.16639116309133 XW-2D 1 40907U 15049J 21112.93780137 .00001825 00000-0 95728-4 0 9995 2 40907 97.4865 115.7656 0014652 23.6823 1.4770 15.16946175309189 LILACSAT-2 1 40908U 15049K 21112.78788370 .00001025 00000-0 59299-4 0 9991 2 40908 97.5053 113.5422 0017009 37.0171 87.3390 15.14379883308804 XW-2E 1 40909U 15049L 21112.80203880 .00002859 00000-0 13817-3 0 9994 2 40909 97.4676 119.5690 0013837 12.0023 113.6678 15.19364884309489 XW-2F 1 40910U 15049M 21112.85196853 .00002749 00000-0 13484-3 0 9990 2 40910 97.4737 118.6933 0014822 10.8749 108.9916 15.18867085309285 XW-2B 1 40911U 15049N 21112.93764435 .00001849 00000-0 97181-4 0 9994 2 40911 97.4870 116.4541 0014619 24.8938 0.7015 15.16864446309076 DCBB 1 40912U 15049P 21112.87605419 .00003128 00000-0 14232-3 0 9991 2 40912 97.4474 123.0765 0013979 344.4741 136.8384 15.21383355309745 TW-1A 1 40928U 15051D 21112.86019997 .00008004 00000-0 16950-3 0 9997 2 40928 97.0824 139.1073 0011305 129.1363 355.6519 15.45294906313101 IO-86 1 40931U 15052B 21112.14754832 .00000481 00000-0 -22197-4 0 9990 2 40931 5.9963 293.9413 0013182 329.8562 30.1221 14.76669011300960 ATHENOXAT-1 1 41168U 15077C 21112.79299561 .00004432 00000-0 19081-3 0 9990 2 41168 14.9875 310.1760 0010683 118.1947 341.9880 15.15507048296324 ChubuSat-2 1 41338U 16012B 21112.52285581 .00000532 00000-0 34417-4 0 9995 2 41338 31.0022 181.5507 0013733 299.4152 60.5112 15.00498453284193 ChubuSat-3 1 41339U 16012C 21112.55140404 .00000636 00000-0 42295-4 0 9991 2 41339 31.0101 178.6549 0013727 307.5789 52.3586 15.00649451284195 Horyu-4 1 41340U 16012D 21112.52538465 .00000795 00000-0 52840-4 0 9991 2 41340 31.0040 163.0763 0013813 337.4224 22.5804 15.01838609284375 e-st@r-II 1 41459U 16025D 21112.87508795 .00003068 00000-0 15390-3 0 9991 2 41459 98.1309 245.8001 0159540 249.6485 108.7508 15.07768492274042 AAUSAT4 1 41460U 16025E 21112.88317592 .00005624 00000-0 26599-3 0 9990 2 41460 98.1332 249.4106 0147154 234.1836 124.5609 15.10699320274329 LO-87 1 41557U 16033B 21112.85644644 .00003762 00000-0 13492-3 0 9993 2 41557 97.3904 207.1211 0014644 74.0683 65.9080 15.29232964273033 NuSat2 1 41558U 16033C 21112.86707624 .00003533 00000-0 11906-3 0 9997 2 41558 97.4007 210.6962 0013615 69.2047 66.8866 15.31326597273219 Lapan A3 1 41603U 16040E 21112.83794750 .00000357 00000-0 19605-4 0 9995 2 41603 97.2627 161.8618 0012664 190.8107 287.4497 15.20004600268134 Pratham 1 41783U 16059A 21112.72925604 .00000095 00000-0 27284-4 0 9997 2 41783 97.9705 164.7270 0034760 63.0731 297.4016 14.63129604244105 TY-1 1 41844U 16066D 21112.84712071 .00002231 00000-0 90396-4 0 9996 2 41844 97.4015 123.6412 0014237 341.0512 141.1166 15.25638270247429 CAS-2T 1 41847U 16066G 21112.40076700 .00000182 00000-0 37277-4 0 9995 2 41847 98.6068 171.2782 0365808 27.8734 334.1532 14.38177629233829 EO-88 1 42017U 17008BX 21112.76775347 .00002737 00000-0 10320-3 0 9991 2 42017 97.3199 181.3629 0004564 317.9460 42.1429 15.27899204232751 CAS-4B 1 42759U 17034B 21112.93309377 .00000567 00000-0 47460-4 0 9993 2 42759 43.0164 126.3017 0008500 184.9455 250.1613 15.10164318212751 CAS-4A 1 42761U 17034D 21112.92703117 .00000548 00000-0 46204-4 0 9999 2 42761 43.0167 125.4277 0009139 186.2404 248.1700 15.10245434212756 NIUSat 1 42766U 17036B 21112.71866103 .00001779 00000-0 79354-4 0 9997 2 42766 97.2565 160.6147 0015449 19.1240 341.0573 15.22564197212736 Aalto 1 1 42775U 17036L 21112.42722863 .00001540 00000-0 69172-4 0 9992 2 42775 97.2537 160.6088 0013991 19.9056 340.2724 15.22543621212673 URSA MAIOR 1 42776U 17036M 21112.43910844 .00001659 00000-0 73752-4 0 9992 2 42776 97.2551 161.0546 0013758 19.4272 340.7486 15.22793142212697 Max Valier Sat 1 42778U 17036P 21112.41094409 .00001893 00000-0 82222-4 0 9994 2 42778 97.2614 162.8458 0012340 23.0598 337.1191 15.23440235212751 Pegasus 1 42784U 17036V 21112.18000504 .00002287 00000-0 96456-4 0 9990 2 42784 97.2568 163.0603 0012089 27.0539 333.1326 15.24229410212780 NUDATSat 1 42787U 17036Y 21112.58369669 .00004696 00000-0 18476-3 0 9998 2 42787 97.2598 165.6752 0011475 20.0334 340.1349 15.26061146212812 SUCHAI 1 1 42788U 17036Z 21112.66680496 .00002645 00000-0 10870-3 0 9994 2 42788 97.2577 164.4488 0011444 23.2723 336.9031 15.24979786212981 SKCUBE 1 42789U 17036AA 21112.42412567 .00002518 00000-0 10436-3 0 9998 2 42789 97.2571 163.9523 0011411 24.7462 335.4322 15.24733912212852 VZLUSAT 1 1 42790U 17036AB 21112.44579987 .00003131 00000-0 12426-3 0 9995 2 42790 97.2603 165.5319 0010565 21.4329 338.7350 15.26034784212946 VENTA 1 1 42791U 17036AC 21112.20663139 .00002535 00000-0 10520-3 0 9993 2 42791 97.2568 163.7618 0011153 26.2211 333.9589 15.24694910212814 Robusta 1B 1 42792U 17036AD 21112.66398856 .00002436 00000-0 10038-3 0 9999 2 42792 97.2573 164.5425 0010962 24.3554 335.8200 15.24965904212929 D-SAT 1 42794U 17036AF 21112.74461994 .00000790 00000-0 72722-4 0 9994 2 42794 97.4659 135.5834 0126937 52.6170 308.6528 14.91522324208797 TechnoSat 1 42829U 17042E 21112.69548246 .00000167 00000-0 22014-4 0 9997 2 42829 97.4774 345.1708 0013585 339.8242 20.2438 14.91258816205377 QIKCOM-1 1 42983U 98067NF 21112.76060995 .00007879 00000-0 81176-4 0 9993 2 42983 51.6364 182.1611 0003058 126.2348 233.8931 15.65901293198676 AO-91 1 43017U 17073E 21112.26765081 .00000898 00000-0 73673-4 0 9990 2 43017 97.7106 18.4773 0256494 123.4960 239.1048 14.79441688184813 EcAMSat 1 43019U 98067NG 21112.57442173 .00025346 00000-0 16015-3 0 9993 2 43019 51.6355 153.2286 0002508 86.8473 273.2814 15.76438473281367 PICSAT 1 43132U 18004X 21112.50940799 .00002505 00000-0 10122-3 0 9997 2 43132 97.4114 187.5561 0010343 53.1375 307.0810 15.25641116182157 AO-92 1 43137U 18004AC 21112.76256083 .00001983 00000-0 82104-4 0 9995 2 43137 97.4093 187.3614 0010132 55.0086 305.2102 15.25074096182163 TianYi 2 1 43155U 18008A 21112.88732484 .00001683 00000-0 10051-3 0 9994 2 43155 97.4058 179.5173 0017731 155.2305 315.3742 15.12306179179676 Zhou Enlai 1 43156U 18008B 21112.87408512 .00002182 00000-0 13080-3 0 9996 2 43156 97.4109 179.3399 0015009 154.3497 319.0285 15.11905486179612 TianYi 6 1 43158U 18008D 21112.79976007 .00002153 00000-0 13111-3 0 9991 2 43158 97.4055 177.9205 0013844 153.9068 342.2273 15.11352862179538 S-Net D 1 43186U 18014G 21112.74559223 .00000582 00000-0 55532-4 0 9999 2 43186 97.6803 21.3248 0009481 268.0486 91.9650 14.97021998175961 S-Net B 1 43187U 18014H 21112.47812806 .00000560 00000-0 53641-4 0 9994 2 43187 97.6799 21.0306 0009485 269.0160 90.9975 14.97021114175927 S-Net A 1 43188U 18014J 21112.74549769 .00000575 00000-0 54969-4 0 9990 2 43188 97.6803 21.3355 0009473 268.0479 91.9658 14.97020246175968 S-Net C 1 43189U 18014K 21112.54545637 .00000580 00000-0 55379-4 0 9991 2 43189 97.6799 21.0898 0009462 268.6820 91.3318 14.97020098174484 FMN 1 1 43192U 18015A 21112.94403230 .00006284 00000-0 23423-3 0 9993 2 43192 97.4789 248.0802 0016184 80.1159 41.0633 15.27679745179112 Shaonian Xing 1 43199U 18015H 21112.88518725 .00004537 00000-0 17192-3 0 9994 2 43199 97.4574 245.3800 0017580 89.2358 30.1258 15.27268455179160 SurfSat 1 43614U 18070B 21112.47136799 .00005674 00000-0 13476-3 0 9993 2 43614 93.0251 282.7061 0012775 211.8009 148.2476 15.41630893146046 CP-7 DAVE 1 43615U 18070C 21112.47851401 .00005514 00000-0 13213-3 0 9990 2 43615 93.0255 282.6719 0012961 211.9420 148.1051 15.41359407146031 ELFIN-B 1 43616U 18070D 21112.47170150 .00008145 00000-0 17876-3 0 9998 2 43616 93.0212 282.7959 0013034 210.4941 149.5559 15.43965843146134 ELFIN-A 1 43617U 18070E 21112.44750419 .00008494 00000-0 18390-3 0 9997 2 43617 93.0261 283.5796 0012542 206.6467 153.4147 15.44374173146149 STARS-Me Mother 1 43640U 98067PQ 21112.42862572 .00109352 00000-0 37798-3 0 9997 2 43640 51.6267 163.6710 0004727 35.0394 325.0922 15.88674077145369 CubeBel 1 1 43666U 18083E 21112.92679463 .00002745 00000-0 13348-3 0 9998 2 43666 97.4610 141.9846 0014996 9.7639 109.9042 15.19173689137589 Changshagaoxin 1 43669U 18083H 21112.87333424 .00002226 00000-0 11275-3 0 9990 2 43669 97.4522 139.1782 0010809 8.3319 116.4948 15.17987866137453 Ten-Koh 1 43677U 18084G 21112.33067417 .00000259 00000-0 32462-4 0 9993 2 43677 97.9113 235.2529 0015155 215.4715 144.5496 14.90440801134944 PO-101 1 43678U 18084H 21112.84683850 .00000616 00000-0 66860-4 0 9991 2 43678 97.9143 237.8676 0008635 228.8709 131.1777 14.91737843135148 IRVINE 01 1 43693U 18088D 21112.79313758 .00005491 00000-0 21705-3 0 9997 2 43693 85.0358 231.9250 0015419 224.4949 135.5057 15.25132823135953 QO-100 1 43700U 18090A 21112.72148108 .00000141 00000-0 00000 0 0 9995 2 43700 0.0181 243.8945 0001849 160.7355 91.8602 1.00255040 9057 Reaktor Hello World 1 43743U 18096AA 21112.74531588 .00002634 00000-0 97020-4 0 9990 2 43743 97.3878 190.6846 0018925 112.4256 247.8990 15.28573386133627 MinXSS-2 1 43758U 18099A 21112.45324512 .00000371 00000-0 38143-4 0 9991 2 43758 97.6696 184.8000 0014454 232.7375 127.2529 14.95992271130146 AO-95 1 43770U 18099N 21112.43975981 .00000129 00000-0 16911-4 0 9995 2 43770 97.6684 183.8556 0013185 242.1548 117.8337 14.95269848130081 RANGE-B 1 43772U 18099Q 21112.74679736 .00001205 00000-0 11370-3 0 9999 2 43772 97.6766 185.0661 0013014 225.8452 134.1700 14.95556662130133 RANGE-A 1 43773U 18099R 21112.44139929 -.00000025 00000-0 29089-5 0 9990 2 43773 97.6618 183.2355 0012417 227.8478 132.1689 14.95175626130070 MOVE-II 1 43780U 18099Y 21112.49023858 .00001135 00000-0 10665-3 0 9996 2 43780 97.6701 184.3764 0012018 237.3581 122.6481 14.95843917130108 SNUSat 2 1 43782U 18099AA 21112.48160697 .00000985 00000-0 93977-4 0 9990 2 43782 97.6683 184.2180 0011579 225.3365 134.6913 14.95516944130108 SnugLite 1 43784U 18099AC 21112.49458412 .00000466 00000-0 47014-4 0 9993 2 43784 97.6648 183.9722 0013701 235.0814 124.9120 14.95637913130129 ITASat 1 1 43786U 18099AE 21112.43700167 .00000083 00000-0 12634-4 0 9991 2 43786 97.6703 184.4919 0013886 234.8947 125.0973 14.95572107130115 EAGLET 1 1 43790U 18099AJ 21112.48477436 .00000764 00000-0 73284-4 0 9995 2 43790 97.6693 184.9280 0012012 237.9640 122.0415 14.95935910129849 ESEO 1 43792U 18099AL 21112.46136137 .00000227 00000-0 25534-4 0 9994 2 43792 97.6655 184.5403 0012133 235.1741 124.8339 14.95716482129899 CSIM 1 43793U 18099AM 21112.45006826 .00000587 00000-0 56680-4 0 9990 2 43793 97.6681 184.8263 0011952 230.5565 129.4600 14.96496735129896 Astrocast 0.1 1 43798U 18099AS 21112.44227606 .00000168 00000-0 20047-4 0 9998 2 43798 97.6697 185.0612 0011482 216.0441 144.0008 14.96111000130143 JO-97 1 43803U 18099AX 21112.67749501 .00001096 00000-0 10316-3 0 9991 2 43803 97.6663 184.4859 0013835 232.9876 127.0079 14.95806410130157 Suomi 100 1 43804U 18099AY 21112.74884738 .00001021 00000-0 96553-4 0 9998 2 43804 97.6662 184.5269 0013857 233.0067 126.9886 14.95781314130172 Al Farabi 2 1 43805U 18099AZ 21112.35649447 .00001744 00000-0 16043-3 0 9999 2 43805 97.6663 184.3363 0013847 233.0369 126.9587 14.95989552130128 CHOMPTT 1 43855U 18104G 21112.37586422 .00001548 00000-0 62346-4 0 9996 2 43855 85.0365 330.6857 0017070 1.5872 358.5422 15.23820706130551 ISAT 1 43879U 18111D 21112.83536286 .00001525 00000-0 13895-3 0 9993 2 43879 97.6877 21.0667 0011347 293.7863 66.2173 14.96579543124738 UWE-4 1 43880U 18111E 21112.49800495 .00001143 00000-0 10478-3 0 9993 2 43880 97.6906 21.1777 0010571 295.8967 64.1164 14.96813862126714 Sparrow 1 43881U 18111F 21112.73816363 .00000607 00000-0 57935-4 0 9996 2 43881 97.6903 21.5350 0011168 290.8952 69.1074 14.96861769124751 Lume 1 1 43908U 18111AJ 21112.46622579 .00002053 00000-0 81971-4 0 9994 2 43908 97.2392 8.9568 0022025 126.7922 233.5342 15.26037839129136 FO-98 1 43933U 19003B 21112.37496507 .00011479 00000-0 45254-3 0 9998 2 43933 97.1893 155.9095 0015456 225.6684 134.3289 15.25618588125556 FO-99 1 43937U 19003F 21112.76844751 .00002286 00000-0 92366-4 0 9996 2 43937 97.1830 158.1712 0022574 205.9450 154.0659 15.25509645125770 MYSat 1 1 44045U 18092F 21112.32780727 .00005011 00000-0 13592-3 0 9990 2 44045 51.6388 339.9628 0010301 6.5127 353.5990 15.39402353122819 AstroCast 0.2 1 44083U 19018F 21112.70614893 .00003129 00000-0 13827-3 0 9992 2 44083 97.3779 174.8224 0013554 161.1289 199.0452 15.22378783114414 AISTechSat 3 1 44103U 19018AB 21112.79346495 .00002235 00000-0 95243-4 0 9994 2 44103 97.3643 175.2706 0013211 172.4854 282.0688 15.23922003114538 AISat 1 1 44104U 19018AC 21112.30068947 .00001977 00000-0 63738-4 0 9991 2 44104 97.4277 189.4146 0056570 193.5640 166.4085 15.31894967115072 Raavana-1 1 44329U 98067QE 21112.76641987 .00045527 00000-0 33914-3 0 9993 2 44329 51.6346 211.4326 0004172 46.3133 313.8211 15.72297118105381 Uguisu 1 44330U 98067QF 21112.68445629 .00045991 00000-0 34804-3 0 9995 2 44330 51.6317 212.3061 0004083 45.5931 314.5401 15.71919517105343 NepaliSat-1 1 44331U 98067QG 21112.63254715 .00046708 00000-0 34879-3 0 9994 2 44331 51.6320 211.9583 0003994 47.7621 312.3715 15.72228446105352 Prox-1 1 44339U 19036A 21112.27753416 .00001294 00000-0 25454-3 0 9993 2 44339 24.0013 327.9919 0011219 285.2115 74.7136 14.53502682 97014 Oculus-ASR 1 44348U 19036K 21112.54564208 .00015594 00000-0 21305-3 0 9991 2 44348 28.5115 145.4687 0335441 22.5757 338.9224 15.10758128100448 Armadillo 1 44352U 19036P 21112.38935162 .00023721 00000-0 30575-3 0 9999 2 44352 28.5267 129.1780 0307960 47.4796 315.1384 15.17547902100546 NO-104 1 44354U 19036R 21112.43117667 .00017110 00000-0 22877-3 0 9990 2 44354 28.5269 140.1771 0330708 29.2922 332.5788 15.12196934100482 NO-103 1 44355U 19036S 21112.30432570 .00035377 00000-0 40119-3 0 9994 2 44355 28.5230 104.5654 0275584 87.3155 275.8950 15.26580597100834 CP9 1 44360U 19036X 21112.15170544 .00073891 -50377-5 55791-3 0 9996 2 44360 28.5059 53.0766 0211191 172.9044 187.4616 15.46686464101204 Move-IIb 1 44398U 19038N 21112.57855457 .00002750 00000-0 15648-3 0 9993 2 44398 97.5762 76.8583 0025045 138.3791 221.9347 15.13447356 99310 SONATE 1 44400U 19038Q 21112.61041373 .00001495 00000-0 89145-4 0 9995 2 44400 97.5831 76.8076 0025752 138.4605 221.8591 15.12455636 99294 BeeSat 9 1 44412U 19038AC 21112.39487651 .00001649 00000-0 96282-4 0 9997 2 44412 97.5825 76.8256 0023195 143.6106 216.6707 15.13120658 98972 JAISAT-1 1 44419U 19038F 21112.71311242 .00001907 00000-0 10936-3 0 9990 2 44419 97.5829 77.6452 0022155 140.8033 219.4808 15.13606711 99369 LightSail-2 1 44420U 19036AC 21112.53479587 .00006327 00000-0 12507-2 0 9993 2 44420 24.0080 309.3251 0021508 288.0692 71.7458 14.59730157 95372 Taurus 1 1 44530U 19059C 21112.74799666 .00000740 00000-0 22023-3 0 9994 2 44530 98.5498 202.6254 0012074 313.7845 46.2346 14.46000498 85034 Duchifat 3 1 44854U 19089C 21112.92420596 .00001103 00000-0 94691-4 0 9994 2 44854 36.9652 69.0057 0007490 41.5923 318.5391 14.99435951 74763 OPS-SAT 1 44878U 19092F 21112.49888992 .00001652 00000-0 88385-4 0 9996 2 44878 97.4748 296.8151 0013973 11.2814 348.8730 15.16383227 74354 TO-108 1 44881U 19093C 21112.74465775 .00000156 00000-0 26702-4 0 9992 2 44881 97.9256 192.1731 0016410 111.4973 248.7990 14.81441098 72487 FloripaSat 1 1 44885U 19093G 21112.72942736 .00000581 00000-0 79268-4 0 9998 2 44885 97.9266 192.6598 0016057 120.1108 240.1711 14.82258816 72518 RS-44 1 44909U 19096E 21112.49183021 .00000024 00000-0 53845-4 0 9991 2 44909 82.5197 149.9994 0216615 223.7157 134.6614 12.79709627 61667 SwampSat-2 1 45115U 19071E 21112.49034984 .00045545 00000-0 82407-3 0 9999 2 45115 51.6367 293.8315 0006702 107.8393 252.3327 15.49187324 68757 HO-107 1 45119U 19071J 21112.25507406 .00003269 00000-0 10439-3 0 9994 2 45119 51.6420 309.3160 0012077 88.0526 272.1839 15.35428940 68533 Phoenix 1 45258U 98067RB 21112.62453501 .00010290 00000-0 15405-3 0 9997 2 45258 51.6391 248.0638 0005620 45.6598 314.4853 15.55594803 66513 AztechSat-1 1 45261U 98067RE 21112.50309095 .00030955 00000-0 34728-3 0 9995 2 45261 51.6363 241.2512 0005397 54.0065 306.1429 15.62357457 66625 QARMAN 1 45263U 98067RG 21112.55807713 .00022232 00000-0 28037-3 0 9997 2 45263 51.6382 244.6293 0005700 53.6739 306.4780 15.59497308 66610 Quetzal 1 1 45598U 98067RL 21112.53725234 .00020330 00000-0 27379-3 0 9998 2 45598 51.6396 248.2560 0001339 154.2000 205.9059 15.57820493 55833 BY70-2 1 45857U 20042B 21112.88863040 .00001787 00000-0 26140-3 0 9990 2 45857 97.9850 189.2161 0012053 41.9033 318.3088 14.76874780 43345 UPMSat 2 1 46276U 20061E 21112.79151849 .00000883 00000-0 48862-4 0 9996 2 46276 97.4349 187.6826 0001934 138.4777 221.6603 15.16388521 35104 AmicalSat 1 46287U 20061R 21112.46184595 .00001099 00000-0 70803-4 0 9996 2 46287 97.4903 186.9503 0001229 309.2508 50.8612 15.10371983 34898 SALSAT 1 46495U 20068K 21112.55416604 .00000791 00000-0 62615-4 0 9993 2 46495 97.6899 50.3940 0015169 260.5080 99.4430 15.03423644 30938 BY70-3 1 46839U 20079N 21112.84830595 .00005411 00000-0 17026-3 0 9997 2 46839 97.2420 187.8127 0008681 54.4450 11.2965 15.33324863 25688 SPOC 1 46921U 98067RR 21112.44303009 .00010421 00000-0 16905-3 0 9994 2 46921 51.6415 255.1325 0001880 231.0894 128.9929 15.53357522 26155 Bobcat-1 1 46922U 98067RS 21112.76780016 .00015600 00000-0 23811-3 0 9995 2 46922 51.6424 252.8131 0001736 246.5458 113.5351 15.54623652 26163 Neutron-1 1 46923U 98067RT 21112.38977893 .00011704 00000-0 18974-3 0 9990 2 46923 51.6415 255.5248 0001827 247.0331 113.0466 15.53236576 26177 CAPE 3 1 47309U 21002A 21112.55902480 .00001676 00000-0 87302-4 0 9992 2 47309 60.6810 140.8863 0033165 13.8404 346.3583 15.20559298 14388 AO-109 1 47311U 21002C 21112.56812389 .00001206 00000-0 64854-4 0 9990 2 47311 60.6840 140.3729 0027941 14.6241 345.5647 15.21467385 14370 MiTEE 1 1 47314U 21002F 21112.49345121 .00002627 00000-0 12227-3 0 9994 2 47314 60.6834 139.9837 0026233 4.4575 355.6740 15.22788781 14384 ExoCube 2 1 47319U 21002L 21112.52498360 .00001181 00000-0 64330-4 0 9994 2 47319 60.6845 140.7214 0029590 17.4066 342.8027 15.21109453 14320 UVSQ-SAT 1 47438U 21006AB 21112.43368338 .00001335 00000-0 79181-4 0 9992 2 47438 97.4924 174.6489 0011227 294.4426 65.5633 15.13013609 13580 YUSAT 1 1 47439U 21006AC 21112.43533260 .00001411 00000-0 83533-4 0 9992 2 47439 97.4924 174.6484 0011083 294.5951 65.4125 15.12989185 13585 SOMP 2b 1 47445U 21006AJ 21112.77298692 .00001258 00000-0 75144-4 0 9991 2 47445 97.4895 174.9275 0010857 297.5336 62.4791 15.12862396 13634 IDEASSat 1 47458U 21006AX 21112.25168541 .00001319 00000-0 78925-4 0 9995 2 47458 97.4986 174.5068 0009931 297.3603 62.6617 15.12723952 13555 RSP-01 1 47925U 98067SB 21112.44352871 .00011064 00000-0 19806-3 0 9997 2 47925 51.6422 258.1206 0002092 187.6897 172.4061 15.50500330 6089 TAUSAT-1 1 47926U 98067SC 21112.43591610 .00014096 00000-0 24651-3 0 9995 2 47926 51.6420 258.0702 0003289 190.4731 169.6190 15.50909618 6078 Tsuru 1 47927U 98067SD 21112.37953043 .00010291 00000-0 18516-3 0 9997 2 47927 51.6422 258.4432 0002144 183.4164 176.6811 15.50443134 6070 STARS-EC 1 47928U 98067SE 21112.12300361 .00011363 00000-0 20412-3 0 9999 2 47928 51.6420 259.7278 0005793 263.7247 96.3082 15.50363138 6015 Maya-2 1 47929U 98067SF 21112.44316477 .00009846 00000-0 17730-3 0 9992 2 47929 51.6423 258.1183 0002233 180.7996 179.2990 15.50475863 6043 OPUSAT-II 1 47930U 98067SG 21112.50726553 .00014438 00000-0 25495-3 0 9991 2 47930 51.6422 257.7967 0002126 181.6875 178.4107 15.50611586 6096 GuaraniSat-1 1 47931U 98067SH 21112.44283538 .00009815 00000-0 17669-3 0 9993 2 47931 51.6423 258.1163 0002264 180.0725 180.0264 15.50489551 6088 CubeSX-Sirius-HSE 1 47951U 21022V 21112.83381881 .00000760 00000-0 56708-4 0 9993 2 47951 97.5625 16.0934 0022908 137.4432 309.4905 15.05571914 4686 KSU-Cubesat 1 47954U 21022Y 21112.41681736 .00001389 00000-0 99846-4 0 9990 2 47954 97.5634 15.6919 0022559 138.7851 221.5084 15.05685801 4344 GRBAlpha 1 47959U 21022AD 21112.83058316 .00000788 00000-0 58600-4 0 9998 2 47959 97.5624 16.0933 0022381 137.5194 295.6742 15.05606427 3506 Orbicraft-Zorkiy 1 47960U 21022AE 21112.90656524 .00000942 00000-0 69163-4 0 9991 2 47960 97.5630 16.1761 0022133 137.0498 354.9303 15.05671556 4207 STECCO 1 47962U 21022AG 21112.87374887 .00002472 00000-0 17018-3 0 9999 2 47962 97.5619 16.1806 0017723 133.7414 290.7815 15.06675497 3502 DIY-1 1 47963U 21022AH 21112.52476642 .00002676 00000-0 18218-3 0 9993 2 47963 97.5632 15.8480 0020963 131.5872 228.7156 15.06975212 3479 MO-110 1 47964U 21022AJ 21112.80634888 .00002406 00000-0 16436-3 0 9994 2 47964 97.5627 16.1242 0021033 131.7777 314.7234 15.06934937 3493 /EX